EW7157 Weather Reports


time (UTC)temp
F
wind
direction
speed
knots
gust
knots
rain 1hr
in
rain 24hr
in
rain mn
in
humidity
%
barometer
mb
20210122064737 34 225 0.0 0.9 0.00 0.00 0.00 74 1006.2
20210122064642 34 225 0.0 0.0 0.00 0.00 0.00 75 1006.2
20210122063636 33 225 0.0 0.0 0.00 0.00 0.00 75 1006.1
20210122062639 33 270 0.0 0.0 0.00 0.00 0.00 77 1006.0
20210122061736 31 270 0.0 0.0 0.00 0.00 0.00 81 1006.0
20210122061637 31 270 0.0 0.0 0.00 0.00 0.00 80 1005.9
20210122060640 30 180 0.0 0.0 0.00 0.00 0.00 82 1005.9
20210122055737 30 225 0.0 0.0 0.00 0.00 0.00 82 1005.9
20210122054738 30 225 0.0 0.0 0.00 0.00 0.00 80 1005.7
20210122054637 30 225 0.0 0.0 0.00 0.00 0.00 81 1005.8
20210122054537 30 225 0.0 0.0 0.00 0.00 0.00 81 1005.9
20210122053635 31 225 0.0 0.0 0.00 0.00 0.00 80 1005.8
20210122053536 31 225 0.0 0.0 0.00 0.00 0.00 80 1005.9
20210122053436 31 225 0.0 0.0 0.00 0.00 0.00 81 1005.8
20210122053339 31 225 0.0 0.0 0.00 0.00 0.00 81 1005.7
20210122052337 31 225 0.0 0.0 0.00 0.00 0.00 82 1005.6
20210122052237 31 225 0.0 0.0 0.00 0.00 0.00 81 1005.6
20210122051238 29 225 0.0 1.7 0.00 0.00 0.00 85 1005.6
20210122051139 29 225 0.0 0.0 0.00 0.00 0.00 85 1005.5
20210122050243 27 270 0.0 0.0 0.00 0.00 0.00 86 1005.4
20210122045321 26 270 0.0 0.0 0.00 0.00 0.00 86 1005.5
20210122045223 26 270 0.0 0.0 0.00 0.00 0.00 86 1005.5
20210122045120 26 270 0.0 0.0 0.00 0.00 0.00 85 1005.5
20210122044124 27 270 0.0 0.0 0.00 0.00 0.00 85 1005.4
20210122044036 27 270 0.0 0.0 0.00 0.00 0.00 85 1005.4
20210122043920 27 270 0.0 0.0 0.00 0.00 0.00 85 1005.4
20210122042920 27 270 0.0 0.0 0.00 0.00 0.00 86 1005.6
20210122041923 26 270 0.0 0.0 0.00 0.00 0.00 87 1005.5
20210122041822 26 270 0.0 0.0 0.00 0.00 0.00 86 1005.5
20210122040820 26 270 0.0 0.0 0.00 0.00 0.00 87 1005.5
20210122035820 26 247 0.0 0.0 0.00 0.00 0.00 84 1005.4
20210122035721 26 247 0.0 0.0 0.00 0.00 0.00 84 1005.4
20210122034720 27 247 0.0 0.0 0.00 0.00 0.00 85 1005.5
20210122034621 27 247 0.0 0.0 0.00 0.00 0.00 85 1005.6
20210122034533 27 247 0.0 0.0 0.00 0.00 0.00 86 1005.5
20210122034423 27 247 0.0 0.0 0.00 0.00 0.00 86 1005.6
20210122033525 27 247 0.0 0.0 0.00 0.00 0.00 84 1005.5
20210122033420 27 247 0.0 0.0 0.00 0.00 0.00 84 1005.6
20210122032420 27 247 0.0 0.0 0.00 0.00 0.00 83 1005.6
20210122031420 28 247 0.0 0.0 0.00 0.00 0.00 82 1005.6
20210122031323 28 247 0.0 0.0 0.00 0.00 0.00 83 1005.6
20210122031221 28 247 0.0 0.0 0.00 0.00 0.00 83 1005.6
20210122030229 28 247 0.0 0.0 0.00 0.00 0.00 82 1005.5
20210122025319 28 247 0.0 0.0 0.00 0.00 0.00 83 1005.5
20210122024323 27 247 0.0 0.0 0.00 0.00 0.00 83 1005.5
20210122024223 27 247 0.0 0.0 0.00 0.00 0.00 82 1005.6
20210122023221 28 247 0.0 0.0 0.00 0.00 0.00 82 1005.6
20210122022320 28 247 0.0 0.0 0.00 0.00 0.00 82 1005.6
20210122022220 28 247 0.0 0.0 0.00 0.00 0.00 82 1005.5
20210122022121 28 247 0.0 0.0 0.00 0.00 0.00 82 1005.5
20210122021121 29 247 0.0 0.0 0.00 0.00 0.00 79 1005.5
20210122020222 29 247 0.0 0.0 0.00 0.00 0.00 80 1005.6
20210122020121 30 247 0.0 0.0 0.00 0.00 0.00 80 1005.5
20210122015220 30 247 0.0 0.0 0.00 0.00 0.00 80 1005.6
20210122014231 30 247 0.0 0.0 0.00 0.00 0.00 79 1005.5
20210122013222 30 247 0.0 0.0 0.00 0.00 0.00 79 1005.5
20210122012220 30 247 0.0 0.0 0.00 0.00 0.00 79 1005.5
20210122011220 30 247 0.0 0.0 0.00 0.00 0.00 79 1005.5
20210122011120 30 247 0.0 0.0 0.00 0.00 0.00 78 1005.5
20210122010122 31 247 0.0 0.0 0.00 0.00 0.00 78 1005.5
20210122005124 31 247 0.0 0.0 0.00 0.00 0.00 78 1005.4
20210122004122 31 247 0.0 0.0 0.00 0.00 0.00 76 1005.5
20210122004029 31 247 0.0 0.0 0.00 0.00 0.00 77 1005.6
20210122003032 31 247 0.0 0.0 0.00 0.00 0.00 77 1005.5
20210122002922 31 247 0.0 0.0 0.00 0.00 0.00 77 1005.6
20210122002821 31 247 0.0 0.0 0.00 0.00 0.00 76 1005.6
20210122002722 31 247 0.0 0.0 0.00 0.00 0.00 76 1005.5
20210122001720 31 247 0.0 0.0 0.00 0.00 0.00 76 1005.6
20210122001620 31 247 0.0 0.0 0.00 0.00 0.00 76 1005.6
20210122001522 31 247 0.0 0.0 0.00 0.00 0.00 75 1005.6
20210122000535 31 247 0.0 0.0 0.00 0.00 0.00 74 1005.6
20210121235521 32 247 0.0 0.0 0.00 0.00 0.00 73 1005.8
20210121234536 32 247 0.0 0.0 0.00 0.00 0.00 73 1005.7
20210121233523 32 247 0.0 0.9 0.00 0.00 0.00 72 1005.8
20210121233424 32 247 0.0 0.9 0.00 0.00 0.00 71 1005.7
20210121232421 33 247 0.0 0.9 0.00 0.00 0.00 70 1005.6
20210121231420 33 247 0.0 0.9 0.00 0.00 0.00 69 1005.7
20210121230423 34 247 0.0 0.9 0.00 0.00 0.00 69 1005.7
20210121225421 34 247 0.0 0.9 0.00 0.00 0.00 68 1005.7
20210121224422 34 247 0.0 0.0 0.00 0.00 0.00 68 1005.6
20210121223423 34 247 0.0 0.0 0.00 0.00 0.00 68 1005.7
20210121221521 35 247 0.0 0.0 0.00 0.00 0.00 65 1005.7
20210121220528 36 225 0.0 0.9 0.00 0.00 0.00 64 1005.8
20210121215523 37 225 0.0 0.9 0.00 0.00 0.00 61 1005.9
20210121214523 38 247 0.0 0.0 0.00 0.00 0.00 60 1005.9
20210121213523 39 225 0.0 0.0 0.00 0.00 0.00 57 1005.9
20210121213421 39 225 0.0 0.0 0.00 0.00 0.00 57 1005.9
20210121212421 40 180 0.0 0.0 0.00 0.00 0.00 56 1006.0
20210121211526 40 191 0.9 0.9 0.00 0.00 0.00 56 1006.1
20210121210521 40 255 0.0 0.0 0.00 0.00 0.00 54 1006.3
20210121210423 40 270 0.0 0.0 0.00 0.00 0.00 55 1006.3
20210121205421 41 180 0.0 0.0 0.00 0.00 0.00 54 1006.3
20210121205326 41 180 0.0 0.9 0.00 0.00 0.00 54 1006.3
20210121205224 41 180 0.0 0.9 0.00 0.00 0.00 53 1006.4
20210121205122 41 180 0.0 0.0 0.00 0.00 0.00 53 1006.3
20210121204123 41 270 0.0 0.9 0.00 0.00 0.00 54 1006.3
20210121203121 41 247 0.0 0.9 0.00 0.00 0.00 54 1006.2
20210121202121 41 225 0.0 0.9 0.00 0.00 0.00 54 1006.4
20210121201219 41 270 1.7 1.7 0.00 0.00 0.00 53 1006.5
20210121201121 41 258 0.9 1.7 0.00 0.00 0.00 52 1006.5
20210121201022 42 270 0.0 0.0 0.00 0.00 0.00 52 1006.5
20210121200027 41 45 0.0 0.0 0.00 0.00 0.00 53 1006.4
20210121195022 41 270 0.0 1.7 0.00 0.00 0.00 52 1006.5
20210121194024 42 261 0.0 0.9 0.00 0.00 0.00 51 1006.6
20210121193922 42 270 0.0 0.0 0.00 0.00 0.00 50 1006.7
20210121192922 43 230 1.7 4.3 0.00 0.00 0.00 51 1006.6
20210121192823 43 241 0.0 1.7 0.00 0.00 0.00 50 1006.6
20210121191823 42 193 0.0 0.9 0.00 0.00 0.00 51 1006.5
20210121190920 42 333 0.0 0.9 0.00 0.00 0.00 51 1006.9
20210121185922 42 270 0.0 0.9 0.00 0.00 0.00 50 1007.1
20210121185822 42 262 0.0 1.7 0.00 0.00 0.00 50 1007.1
20210121184822 42 270 0.9 2.6 0.00 0.00 0.00 51 1007.3
20210121184728 42 270 0.0 1.7 0.00 0.00 0.00 51 1007.3
20210121183722 42 261 0.0 2.6 0.00 0.00 0.00 51 1007.6
20210121182723 41 13 0.9 2.6 0.00 0.00 0.00 50 1007.6
20210121181725 42 100 0.0 1.7 0.00 0.00 0.00 48 1008.0
20210121181628 42 255 0.0 1.7 0.00 0.00 0.00 49 1008.0
20210121180719 42 218 1.7 4.3 0.00 0.00 0.00 49 1008.1
20210121180624 42 225 0.0 0.9 0.00 0.00 0.00 49 1008.1
20210121180522 42 225 0.9 0.9 0.00 0.00 0.00 49 1008.1
20210121180421 42 255 0.9 1.7 0.00 0.00 0.00 49 1008.1
20210121180325 42 259 0.9 2.6 0.00 0.00 0.00 48 1008.1
20210121175321 41 273 0.9 3.5 0.00 0.00 0.00 49 1008.1
20210121175219 41 231 0.9 3.5 0.00 0.00 0.00 49 1008.2
20210121174223 41 241 0.9 1.7 0.00 0.00 0.00 49 1008.5
20210121173225 41 260 0.9 1.7 0.00 0.00 0.00 49 1008.7
20210121172222 40 259 0.9 0.9 0.00 0.00 0.00 49 1009.0
20210121172122 40 242 1.7 2.6 0.00 0.00 0.00 49 1009.0
20210121171221 39 246 2.6 4.3 0.00 0.00 0.00 52 1009.3
20210121171121 39 259 1.7 3.5 0.00 0.00 0.00 51 1009.3
20210121171022 39 262 2.6 3.5 0.00 0.00 0.00 52 1009.2
20210121170925 39 270 0.0 0.9 0.00 0.00 0.00 52 1009.3
20210121165921 38 226 0.9 2.6 0.00 0.00 0.00 52 1009.5
20210121165026 38 242 0.9 2.6 0.00 0.00 0.00 53 1009.7
20210121164920 38 347 0.0 1.7 0.00 0.00 0.00 54 1009.7
20210121163927 37 243 0.0 0.9 0.00 0.00 0.00 54 1010.0
20210121162922 37 221 1.7 5.2 0.00 0.00 0.00 55 1010.4
20210121161939 36 221 1.7 2.6 0.00 0.00 0.00 55 1010.6
20210121160922 36 265 2.6 4.3 0.00 0.00 0.00 55 1011.0
20210121155923 36 197 1.7 2.6 0.00 0.00 0.00 55 1011.2
20210121155821 35 189 0.9 4.3 0.00 0.00 0.00 56 1011.2
20210121155721 35 172 0.0 0.0 0.00 0.00 0.00 56 1011.4
20210121154721 34 291 0.9 2.6 0.00 0.00 0.00 55 1011.7
20210121154621 34 270 0.0 1.7 0.00 0.00 0.00 55 1011.8
20210121153623 34 242 0.9 2.6 0.00 0.00 0.00 55 1011.8
20210121152621 33 282 1.7 3.5 0.00 0.00 0.00 56 1011.8
20210121152523 33 262 0.9 2.6 0.00 0.00 0.00 57 1011.8
20210121152420 33 253 1.7 4.3 0.00 0.00 0.00 57 1011.9
20210121152322 33 267 2.6 3.5 0.00 0.00 0.00 56 1011.9
20210121151337 32 267 0.0 0.9 0.00 0.00 0.00 58 1012.0
20210121151221 31 258 0.0 0.9 0.00 0.00 0.00 59 1011.9
20210121151122 31 281 0.0 0.9 0.00 0.00 0.00 59 1012.0
20210121151020 31 272 0.9 1.7 0.00 0.00 0.00 60 1012.1
20210121150031 30 225 3.5 3.5 0.00 0.00 0.00 60 1012.3
20210121145023 30 210 0.0 0.0 0.00 0.00 0.00 63 1012.0
20210121144921 29 225 0.0 0.0 0.00 0.00 0.00 62 1011.9
20210121143923 29 225 0.0 0.0 0.00 0.00 0.00 64 1012.0
20210121142924 29 270 0.9 0.9 0.00 0.00 0.00 64 1012.1
20210121142820 29 184 0.0 0.9 0.00 0.00 0.00 64 1012.2
20210121141824 28 301 0.0 0.0 0.00 0.00 0.00 66 1012.4
20210121140920 28 225 0.0 0.0 0.00 0.00 0.00 66 1012.7
20210121135921 27 251 0.0 2.6 0.00 0.00 0.00 68 1012.7
20210121135821 27 270 2.6 2.6 0.00 0.00 0.00 68 1012.6
20210121134824 26 135 0.0 0.0 0.00 0.00 0.00 70 1012.9
20210121134722 26 162 0.0 0.9 0.00 0.00 0.00 71 1013.0
20210121134625 26 225 0.9 0.9 0.00 0.00 0.00 71 1013.0
20210121133721 25 180 0.0 0.0 0.00 0.00 0.00 72 1013.1
20210121132722 25 270 0.0 0.0 0.00 0.00 0.00 73 1013.2
20210121131821 24 315 0.0 0.0 0.00 0.00 0.00 75 1013.3
20210121131724 24 315 0.0 0.0 0.00 0.00 0.00 75 1013.3
20210121130721 24 270 0.0 0.0 0.00 0.00 0.00 76 1013.2
20210121130619 24 270 0.0 0.0 0.00 0.00 0.00 76 1013.2
20210121130525 24 270 0.0 0.0 0.00 0.00 0.00 76 1013.2
20210121124124 22 225 0.0 0.0 0.00 0.00 0.00 79 1013.2
20210121124033 22 225 0.0 0.0 0.00 0.00 0.00 79 1013.2
20210121123924 22 225 0.0 0.0 0.00 0.00 0.00 80 1013.2
20210121122924 21 225 0.0 0.0 0.00 0.00 0.00 83 1013.3
20210121122820 21 225 0.0 0.0 0.00 0.00 0.00 83 1013.3
20210121121919 20 225 0.0 0.0 0.00 0.00 0.00 85 1013.4
20210121121821 20 225 0.0 0.0 0.00 0.00 0.00 85 1013.4
20210121121722 20 225 0.0 0.0 0.00 0.00 0.00 85 1013.4
20210121121623 20 225 0.0 0.0 0.00 0.00 0.00 85 1013.4
20210121121524 20 225 0.0 0.0 0.00 0.00 0.00 85 1013.4
20210121121435 20 225 0.0 0.0 0.00 0.00 0.00 85 1013.5
20210121121324 20 225 0.0 0.0 0.00 0.00 0.00 85 1013.5
20210121121241 20 225 0.0 0.0 0.00 0.00 0.00 85 1013.5
20210121121123 20 225 0.0 0.0 0.00 0.00 0.00 85 1013.5
20210121121049 20 225 0.0 0.0 0.00 0.00 0.00 85 1013.5
20210121120934 20 225 0.0 0.0 0.00 0.00 0.00 85 1013.4
20210121120854 20 225 0.0 0.0 0.00 0.00 0.00 85 1013.4
20210121074319 21 180 0.0 0.0 0.00 0.00 0.00 74 1017.2
20210121074223 21 180 0.0 0.0 0.00 0.00 0.00 74 1017.2
20210121074119 21 180 0.0 0.0 0.00 0.00 0.00 74 1017.2
20210121074029 21 180 0.0 0.0 0.00 0.00 0.00 74 1017.2